カタログに戻る

COSMOS 651

運用中軍事LEO
NORAD 7291·PAYLOAD·🇷🇺 Russia

打ち上げ May 15, 1974 から Baikonur Cosmodrome

Loading…

次のパス (今後24時間)

TLE

最新Source: Space-Track

元期: Sep 14, 2026, 06:20 UTC

1 07291U 74029A   26257.26445270 -.00000083  00000-0  64963-5 0  9998
2 07291  64.9695  79.3104 0033146   4.5961 355.5402 13.93097809663127

AllMySatでCOSMOS 651をリアルタイム追跡

Download on the App Store